• In Latvia
  • List of Countries
  • For 7 days
  • Water Temperature
  • Satellite Maps
  • Weather Map
  • Weather Widgets
  • user-avatar
    Login

    Hourly Weather Durres

    Today, 24 January, Wednesday

    Time Temperature Precipitation Wind Pressure Humidity
    00:00 +3°C° 0 mm 6 mps 767 mmHg 66%
    01:00 +2°C° 0 mm 6 mps 768 mmHg 66%
    02:00 +2°C° 0 mm 6 mps 768 mmHg 66%
    03:00 +2°C° 0 mm 6 mps 768 mmHg 66%
    04:00 +2°C° 0 mm 6 mps 769 mmHg 66%
    05:00 +2°C° 0 mm 6 mps 769 mmHg 66%
    06:00 +2°C° 0 mm 5 mps 769 mmHg 66%
    07:00 +1°C° 0 mm 5 mps 770 mmHg 66%
    08:00 +3°C° 0 mm 5 mps 770 mmHg 61%
    09:00 +6°C° 0 mm 5 mps 770 mmHg 55%
    10:00 +7°C° 0 mm 5 mps 771 mmHg 50%
    11:00 +8°C° 0 mm 4 mps 771 mmHg 47%
    12:00 +10°C° 0 mm 4 mps 770 mmHg 44%
    13:00 +11°C° 0 mm 3 mps 770 mmHg 41%
    14:00 +11°C° 0 mm 3 mps 770 mmHg 45%
    15:00 +10°C° 0 mm 3 mps 770 mmHg 49%
    16:00 +10°C° 0 mm 3 mps 770 mmHg 53%
    17:00 +7°C° 0 mm 4 mps 771 mmHg 55%
    18:00 +6°C° 0 mm 4 mps 771 mmHg 58%
    19:00 +5°C° 0 mm 4 mps 771 mmHg 60%
    20:00 +4°C° 0 mm 3 mps 771 mmHg 60%
    21:00 +4°C° 0 mm 3 mps 771 mmHg 60%
    22:00 +4°C° 0 mm 3 mps 772 mmHg 61%
    23:00 +3°C° 0 mm 3 mps 772 mmHg 60%

    Tomorrow, 25 January, Thursday

    Time Temperature Precipitation Wind Pressure Humidity
    00:00 +3°C° 0 mm 3 mps 772 mmHg 60%
    01:00 +4°C° 0 mm 2 mps 772 mmHg 59%
    02:00 +4°C° 0 mm 2 mps 771 mmHg 58%
    03:00 +4°C° 0 mm 2 mps 771 mmHg 56%
    04:00 +4°C° 0 mm 2 mps 771 mmHg 55%
    05:00 +4°C° 0 mm 2 mps 771 mmHg 53%
    06:00 +4°C° 0 mm 2 mps 771 mmHg 52%
    07:00 +4°C° 0 mm 2 mps 770 mmHg 50%
    08:00 +6°C° 0 mm 2 mps 770 mmHg 45%
    09:00 +8°C° 0 mm 2 mps 770 mmHg 40%
    10:00 +10°C° 0 mm 2 mps 770 mmHg 36%
    11:00 +12°C° 0 mm 1 mps 770 mmHg 35%
    12:00 +12°C° 0 mm 1 mps 769 mmHg 35%
    13:00 +13°C° 0 mm 1 mps 769 mmHg 34%
    14:00 +12°C° 0 mm 1 mps 769 mmHg 40%
    15:00 +12°C° 0 mm 1 mps 768 mmHg 46%
    16:00 +11°C° 0 mm 1 mps 768 mmHg 51%
    17:00 +10°C° 0 mm 1 mps 768 mmHg 53%
    18:00 +9°C° 0 mm 1 mps 768 mmHg 54%
    19:00 +8°C° 0 mm 1 mps 768 mmHg 55%
    20:00 +8°C° 0 mm 1 mps 768 mmHg 54%
    21:00 +8°C° 0 mm 1 mps 768 mmHg 54%
    22:00 +6°C° 0 mm 2 mps 768 mmHg 53%
    23:00 +6°C° 0 mm 2 mps 768 mmHg 53%

    Day after tomorrow, 26 January, Friday

    Time Temperature Precipitation Wind Pressure Humidity
    00:00 +6°C° 0 mm 2 mps 768 mmHg 52%
    01:00 +6°C° 0 mm 2 mps 768 mmHg 51%
    02:00 +6°C° 0 mm 2 mps 767 mmHg 50%
    03:00 +5°C° 0 mm 3 mps 767 mmHg 49%
    04:00 +5°C° 0 mm 3 mps 767 mmHg 48%
    05:00 +5°C° 0 mm 3 mps 767 mmHg 48%
    06:00 +5°C° 0 mm 3 mps 767 mmHg 47%
    07:00 +5°C° 0 mm 3 mps 767 mmHg 46%
    08:00 +7°C° 0 mm 3 mps 766 mmHg 43%
    09:00 +9°C° 0 mm 3 mps 766 mmHg 40%
    10:00 +11°C° 0 mm 3 mps 766 mmHg 38%
    11:00 +12°C° 0 mm 3 mps 766 mmHg 39%
    12:00 +12°C° 0 mm 3 mps 766 mmHg 41%
    13:00 +13°C° 0 mm 3 mps 765 mmHg 43%
    14:00 +12°C° 0 mm 3 mps 765 mmHg 49%
    15:00 +12°C° 0 mm 3 mps 765 mmHg 55%
    16:00 +11°C° 0 mm 3 mps 765 mmHg 61%
    17:00 +10°C° 0 mm 3 mps 765 mmHg 63%
    18:00 +9°C° 0 mm 3 mps 766 mmHg 65%
    19:00 +7°C° 0 mm 4 mps 766 mmHg 67%
    20:00 +7°C° 0 mm 4 mps 766 mmHg 66%
    21:00 +7°C° 0 mm 4 mps 766 mmHg 66%
    22:00 +6°C° 0 mm 4 mps 767 mmHg 65%
    23:00 +6°C° 0 mm 4 mps 767 mmHg 65%

    27 January, Saturday

    Time Temperature Precipitation Wind Pressure Humidity
    00:00 +6°C° 0 mm 4 mps 767 mmHg 64%
    01:00 +6°C° 0 mm 4 mps 767 mmHg 64%
    02:00 +6°C° 0 mm 4 mps 766 mmHg 64%
    03:00 +6°C° 0 mm 4 mps 766 mmHg 64%
    04:00 +6°C° 0 mm 4 mps 766 mmHg 64%
    05:00 +6°C° 0 mm 4 mps 766 mmHg 64%
    06:00 +6°C° 0 mm 4 mps 767 mmHg 64%
    07:00 +5°C° 0 mm 4 mps 767 mmHg 64%
    08:00 +7°C° 0 mm 4 mps 767 mmHg 60%
    09:00 +10°C° 0 mm 4 mps 767 mmHg 56%
    10:00 +12°C° 0 mm 4 mps 767 mmHg 52%
    11:00 +13°C° 0 mm 4 mps 767 mmHg 51%
    12:00 +13°C° 0 mm 3 mps 767 mmHg 50%
    13:00 +14°C° 0 mm 3 mps 767 mmHg 49%
    14:00 +14°C° 0 mm 3 mps 767 mmHg 54%
    15:00 +14°C° 0 mm 2 mps 767 mmHg 58%
    16:00 +14°C° 0 mm 2 mps 767 mmHg 63%
    17:00 +13°C° 0 mm 2 mps 768 mmHg 65%
    18:00 +12°C° 0 mm 2 mps 768 mmHg 67%
    19:00 +9°C° 0 mm 2 mps 769 mmHg 69%
    20:00 +10°C° 0 mm 1 mps 769 mmHg 68%
    21:00 +10°C° 0 mm 1 mps 769 mmHg 67%
    22:00 +10°C° 0 mm 1 mps 770 mmHg 66%
    23:00 +9°C° 0 mm 1 mps 770 mmHg 65%

    28 January, Sunday

    Time Temperature Precipitation Wind Pressure Humidity
    00:00 +9°C° 0 mm 1 mps 770 mmHg 64%
    01:00 +9°C° 0 mm 1 mps 770 mmHg 63%
    02:00 +8°C° 0 mm 2 mps 770 mmHg 63%
    03:00 +8°C° 0 mm 2 mps 770 mmHg 62%
    04:00 +7°C° 0 mm 2 mps 771 mmHg 62%
    05:00 +7°C° 0 mm 2 mps 771 mmHg 62%
    06:00 +7°C° 0 mm 2 mps 771 mmHg 62%
    07:00 +7°C° 0 mm 2 mps 772 mmHg 62%
    08:00 +9°C° 0 mm 2 mps 772 mmHg 58%
    09:00 +12°C° 0 mm 2 mps 772 mmHg 53%
    10:00 +14°C° 0 mm 1 mps 772 mmHg 49%
    11:00 +15°C° 0 mm 2 mps 772 mmHg 46%
    12:00 +16°C° 0 mm 2 mps 772 mmHg 43%
    13:00 +17°C° 0 mm 2 mps 772 mmHg 41%
    14:00 +16°C° 0 mm 2 mps 772 mmHg 46%
    15:00 +14°C° 0 mm 3 mps 772 mmHg 52%
    16:00 +14°C° 0 mm 3 mps 772 mmHg 58%
    17:00 +12°C° 0 mm 3 mps 772 mmHg 60%
    18:00 +11°C° 0 mm 3 mps 772 mmHg 62%
    19:00 +10°C° 0 mm 3 mps 773 mmHg 65%
    20:00 +10°C° 0 mm 3 mps 773 mmHg 64%
    21:00 +9°C° 0 mm 3 mps 773 mmHg 63%
    22:00 +9°C° 0 mm 3 mps 773 mmHg 62%
    23:00 +9°C° 0 mm 3 mps 773 mmHg 62%

    29 January, Monday

    Time Temperature Precipitation Wind Pressure Humidity
    00:00 +8°C° 0 mm 3 mps 773 mmHg 61%
    01:00 +8°C° 0 mm 3 mps 773 mmHg 60%
    02:00 +8°C° 0 mm 3 mps 773 mmHg 60%
    03:00 +8°C° 0 mm 2 mps 773 mmHg 59%
    04:00 +8°C° 0 mm 2 mps 772 mmHg 58%
    05:00 +7°C° 0 mm 2 mps 772 mmHg 57%
    06:00 +7°C° 0 mm 2 mps 773 mmHg 56%
    07:00 +7°C° 0 mm 2 mps 773 mmHg 56%
    08:00 +9°C° 0 mm 2 mps 773 mmHg 51%
    09:00 +12°C° 0 mm 2 mps 773 mmHg 47%
    10:00 +14°C° 0 mm 2 mps 773 mmHg 43%
    11:00 +15°C° 0 mm 2 mps 772 mmHg 41%
    12:00 +16°C° 0 mm 3 mps 772 mmHg 39%
    13:00 +17°C° 0 mm 3 mps 771 mmHg 37%
    14:00 +17°C° 0 mm 3 mps 771 mmHg 42%
    15:00 +16°C° 0 mm 3 mps 771 mmHg 48%
    16:00 +14°C° 0 mm 4 mps 771 mmHg 54%
    17:00 +13°C° 0 mm 3 mps 771 mmHg 56%
    18:00 +11°C° 0 mm 3 mps 771 mmHg 57%
    19:00 +10°C° 0 mm 3 mps 771 mmHg 59%
    20:00 +10°C° 0 mm 3 mps 772 mmHg 58%
    21:00 +9°C° 0 mm 2 mps 772 mmHg 57%
    22:00 +9°C° 0 mm 2 mps 772 mmHg 57%
    23:00 +9°C° 0 mm 2 mps 772 mmHg 56%
    Show more